Year,Month,Day,Hour,Minute,Value (Times are PST for temperature in C)
2008,03,27,00,01,1.20
2008,03,27,00,02,1.20
2008,03,27,00,03,1.20
2008,03,27,00,05,1.10
2008,03,27,00,06,1.10
2008,03,27,00,08,1.00
2008,03,27,00,09,1.00
2008,03,27,00,10,0.90
2008,03,27,00,11,0.90
2008,03,27,00,13,0.80
2008,03,27,00,14,0.80
2008,03,27,00,15,0.80
2008,03,27,00,16,0.70
2008,03,27,00,18,0.70
2008,03,27,00,19,0.70
2008,03,27,00,20,0.70
2008,03,27,00,21,0.60
2008,03,27,00,22,0.60
2008,03,27,00,23,0.60
2008,03,27,00,25,0.60
2008,03,27,00,27,0.60
2008,03,27,00,28,0.60
2008,03,27,00,30,0.60
2008,03,27,00,31,0.60
2008,03,27,00,32,0.70
2008,03,27,00,33,0.70
2008,03,27,00,35,0.70
2008,03,27,00,36,0.70
2008,03,27,00,38,0.60
2008,03,27,00,39,0.60
2008,03,27,00,40,0.60
2008,03,27,00,41,0.60
2008,03,27,00,42,0.60
2008,03,27,00,43,0.50
2008,03,27,00,45,0.40
2008,03,27,00,46,0.40
2008,03,27,00,47,0.40
2008,03,27,00,49,0.30
2008,03,27,00,50,0.20
2008,03,27,00,51,0.20
2008,03,27,00,52,0.20
2008,03,27,00,54,0.10
2008,03,27,00,55,0.10
2008,03,27,00,57,-0.10
2008,03,27,00,58,-0.10
2008,03,27,00,59,-0.10
2008,03,27,01,00,-0.10
2008,03,27,01,02,-0.20
2008,03,27,01,04,-0.20
2008,03,27,03,09,-1.50
2008,03,27,03,11,-1.60
2008,03,27,03,12,-1.60
2008,03,27,03,13,-1.60
2008,03,27,03,14,-1.60
2008,03,27,03,15,-1.60
2008,03,27,03,16,-1.50
2008,03,27,03,17,-1.60
2008,03,27,03,18,-1.60
2008,03,27,03,19,-1.60
2008,03,27,03,20,-1.60
2008,03,27,03,21,-1.60
2008,03,27,03,22,-1.60
2008,03,27,03,23,-1.60
2008,03,27,03,24,-1.60
2008,03,27,03,25,-1.60
2008,03,27,03,26,-1.60
2008,03,27,03,27,-1.60
2008,03,27,03,28,-1.60
2008,03,27,03,29,-1.60
2008,03,27,03,30,-1.60
2008,03,27,03,31,-1.50
2008,03,27,03,32,-1.50
2008,03,27,03,33,-1.60
2008,03,27,03,34,-1.60
2008,03,27,03,35,-1.60
2008,03,27,03,36,-1.60
2008,03,27,03,37,-1.60
2008,03,27,03,38,-1.60
2008,03,27,03,39,-1.60
2008,03,27,03,40,-1.60
2008,03,27,03,41,-1.60
2008,03,27,03,42,-1.60
2008,03,27,03,43,-1.60
2008,03,27,03,45,-1.60
2008,03,27,03,46,-1.60
2008,03,27,03,47,-1.60
2008,03,27,03,48,-1.60
2008,03,27,03,49,-1.60
2008,03,27,03,50,-1.60
2008,03,27,03,51,-1.60
2008,03,27,03,52,-1.60
2008,03,27,03,53,-1.60
2008,03,27,03,54,-1.70
2008,03,27,03,55,-1.70
2008,03,27,03,56,-1.70
2008,03,27,03,57,-1.70
2008,03,27,03,58,-1.70
2008,03,27,04,00,-1.70
2008,03,27,04,01,-1.70
2008,03,27,04,02,-1.70
2008,03,27,04,03,-1.70
2008,03,27,04,04,-1.70
2008,03,27,04,05,-1.70
2008,03,27,04,06,-1.70
2008,03,27,04,07,-1.70
2008,03,27,04,08,-1.70
2008,03,27,04,09,-1.80
2008,03,27,04,11,-1.80
2008,03,27,04,13,-1.80
2008,03,27,04,15,-1.80
2008,03,27,04,16,-1.80
2008,03,27,04,17,-1.80
2008,03,27,04,18,-1.70
2008,03,27,04,20,-1.70
2008,03,27,04,21,-1.70
2008,03,27,04,22,-1.70
2008,03,27,04,23,-1.70
2008,03,27,04,24,-1.70
2008,03,27,04,25,-1.70
2008,03,27,04,26,-1.70
2008,03,27,04,27,-1.70
2008,03,27,04,28,-1.70
2008,03,27,04,29,-1.70
2008,03,27,04,30,-1.70
2008,03,27,04,31,-1.70
2008,03,27,04,32,-1.70
2008,03,27,04,33,-1.70
2008,03,27,04,34,-1.70
2008,03,27,04,35,-1.60
2008,03,27,04,36,-1.60
2008,03,27,04,37,-1.60
2008,03,27,04,38,-1.60
2008,03,27,04,40,-1.60
2008,03,27,04,42,-1.60
2008,03,27,04,43,-1.60
2008,03,27,04,44,-1.60
2008,03,27,04,46,-1.50
2008,03,27,04,47,-1.50
2008,03,27,04,48,-1.50
2008,03,27,04,49,-1.50
2008,03,27,04,51,-1.50
2008,03,27,04,52,-1.50
2008,03,27,04,53,-1.50
2008,03,27,04,54,-1.50
2008,03,27,04,55,-1.50
2008,03,27,04,56,-1.50
2008,03,27,04,57,-1.50
2008,03,27,04,58,-1.50
2008,03,27,04,59,-1.50
2008,03,27,05,00,-1.50
2008,03,27,05,01,-1.50
2008,03,27,05,02,-1.50
2008,03,27,05,03,-1.50
2008,03,27,05,04,-1.50
2008,03,27,05,05,-1.50
2008,03,27,05,06,-1.50
2008,03,27,05,07,-1.60
2008,03,27,05,08,-1.60
2008,03,27,05,09,-1.60
2008,03,27,05,11,-1.60
2008,03,27,05,12,-1.60
2008,03,27,05,13,-1.60
2008,03,27,05,14,-1.60
2008,03,27,05,15,-1.60
2008,03,27,05,16,-1.60
2008,03,27,05,17,-1.60
2008,03,27,05,18,-1.60
2008,03,27,05,19,-1.60
2008,03,27,05,20,-1.60
2008,03,27,05,21,-1.60
2008,03,27,05,22,-1.60
2008,03,27,05,23,-1.70
2008,03,27,05,25,-1.70
2008,03,27,05,26,-1.70
2008,03,27,05,27,-1.70
2008,03,27,05,28,-1.70
2008,03,27,05,30,-1.70
2008,03,27,05,31,-1.70
2008,03,27,05,32,-1.70
2008,03,27,05,33,-1.70
2008,03,27,05,35,-1.70
2008,03,27,05,36,-1.70
2008,03,27,05,37,-1.70
2008,03,27,05,38,-1.70
2008,03,27,05,39,-1.70
2008,03,27,05,40,-1.70
2008,03,27,05,41,-1.70
2008,03,27,05,42,-1.70
2008,03,27,05,43,-1.70
2008,03,27,05,44,-1.70
2008,03,27,05,45,-1.70
2008,03,27,05,46,-1.70
2008,03,27,05,47,-1.70
2008,03,27,05,48,-1.70
2008,03,27,05,49,-1.70
2008,03,27,05,50,-1.70
2008,03,27,05,52,-1.70
2008,03,27,05,53,-1.70
2008,03,27,05,54,-1.70
2008,03,27,05,55,-1.70
2008,03,27,05,56,-1.70
2008,03,27,05,57,-1.80
2008,03,27,05,59,-1.80
2008,03,27,06,00,-1.80
2008,03,27,06,01,-1.80
2008,03,27,06,02,-1.80
2008,03,27,06,03,-1.80
2008,03,27,06,04,-1.80
2008,03,27,06,05,-1.80
2008,03,27,06,06,-1.80
2008,03,27,06,07,-1.80
2008,03,27,06,08,-1.80
2008,03,27,06,09,-1.80
2008,03,27,06,10,-1.80
2008,03,27,06,11,-1.80
2008,03,27,06,12,-1.80
2008,03,27,06,13,-1.80
2008,03,27,06,15,-1.80
2008,03,27,06,16,-1.80
2008,03,27,06,17,-1.80
2008,03,27,06,18,-1.80
2008,03,27,06,19,-1.80
2008,03,27,06,20,-1.80
2008,03,27,06,21,-1.80
2008,03,27,06,22,-1.80
2008,03,27,06,23,-1.80
2008,03,27,06,24,-1.80
2008,03,27,06,25,-1.80
2008,03,27,06,26,-1.80
2008,03,27,06,27,-1.80
2008,03,27,06,28,-1.80
2008,03,27,06,29,-1.80
2008,03,27,06,30,-1.80
2008,03,27,06,31,-1.80
2008,03,27,06,32,-1.80
2008,03,27,06,33,-1.90
2008,03,27,06,34,-1.90
2008,03,27,06,35,-1.90
2008,03,27,06,37,-1.90
2008,03,27,06,39,-1.90
2008,03,27,06,40,-1.90
2008,03,27,06,41,-1.90
2008,03,27,06,42,-1.90
2008,03,27,06,43,-1.90
2008,03,27,06,44,-1.90
2008,03,27,06,45,-1.90
2008,03,27,06,46,-1.90
2008,03,27,06,47,-1.90
2008,03,27,06,48,-1.90
2008,03,27,06,49,-1.90
2008,03,27,06,50,-1.80
2008,03,27,06,52,-1.80
2008,03,27,06,53,-1.80
2008,03,27,06,54,-1.80
2008,03,27,06,55,-1.80
2008,03,27,06,56,-1.80
2008,03,27,06,57,-1.80
2008,03,27,06,58,-1.80
2008,03,27,06,59,-1.80
2008,03,27,07,00,-1.80
2008,03,27,07,01,-1.80
2008,03,27,07,02,-1.80
2008,03,27,07,03,-1.80
2008,03,27,07,04,-1.70
2008,03,27,07,05,-1.70
2008,03,27,07,06,-1.70
2008,03,27,07,07,-1.70
2008,03,27,07,08,-1.70
2008,03,27,07,09,-1.70
2008,03,27,07,10,-1.70
2008,03,27,07,11,-1.70
2008,03,27,07,12,-1.70
2008,03,27,07,13,-1.70
2008,03,27,07,14,-1.70
2008,03,27,07,16,-1.70
2008,03,27,07,17,-1.70
2008,03,27,07,18,-1.70
2008,03,27,07,19,-1.60
2008,03,27,07,20,-1.60
2008,03,27,07,21,-1.60
2008,03,27,07,22,-1.60
2008,03,27,07,23,-1.60
2008,03,27,07,24,-1.60
2008,03,27,07,25,-1.60
2008,03,27,07,26,-1.60
2008,03,27,07,27,-1.60
2008,03,27,07,28,-1.60
2008,03,27,07,29,-1.60
2008,03,27,07,30,-1.60
2008,03,27,07,31,-1.60
2008,03,27,07,32,-1.60
2008,03,27,07,33,-1.60
2008,03,27,07,34,-1.60
2008,03,27,07,35,-1.60
2008,03,27,07,36,-1.60
2008,03,27,07,37,-1.60
2008,03,27,07,39,-1.60
2008,03,27,07,40,-1.60
2008,03,27,07,41,-1.60
2008,03,27,07,42,-1.60
2008,03,27,07,43,-1.50
2008,03,27,07,45,-1.50
2008,03,27,07,46,-1.50
2008,03,27,07,47,-1.50
2008,03,27,07,48,-1.50
2008,03,27,07,49,-1.50
2008,03,27,07,50,-1.50
2008,03,27,07,51,-1.50
2008,03,27,07,53,-1.50
2008,03,27,07,54,-1.40
2008,03,27,07,55,-1.40
2008,03,27,07,56,-1.40
2008,03,27,07,57,-1.40
2008,03,27,07,58,-1.40
2008,03,27,08,00,-1.40
2008,03,27,08,02,-1.30
2008,03,27,08,03,-1.30
2008,03,27,08,04,-1.30
2008,03,27,08,05,-1.30
2008,03,27,08,06,-1.30
2008,03,27,08,07,-1.30
2008,03,27,08,08,-1.20
2008,03,27,08,09,-1.20
2008,03,27,08,10,-1.20
2008,03,27,08,11,-1.20
2008,03,27,08,12,-1.20
2008,03,27,08,13,-1.20
2008,03,27,08,15,-1.20
2008,03,27,08,16,-1.20
2008,03,27,08,17,-1.10
2008,03,27,08,18,-1.10
2008,03,27,08,19,-1.10
2008,03,27,08,20,-1.10
2008,03,27,08,21,-1.10
2008,03,27,08,22,-1.00
2008,03,27,08,23,-1.00
2008,03,27,08,24,-0.90
2008,03,27,08,25,-0.90
2008,03,27,08,26,-0.90
2008,03,27,08,27,-0.90
2008,03,27,08,28,-0.90
2008,03,27,08,29,-0.80
2008,03,27,08,30,-0.80
2008,03,27,08,31,-0.80
2008,03,27,08,32,-0.80
2008,03,27,08,33,-0.80
2008,03,27,08,34,-0.80
2008,03,27,08,35,-0.80
2008,03,27,08,36,-0.80
2008,03,27,08,37,-0.70
2008,03,27,08,38,-0.70
2008,03,27,08,39,-0.70
2008,03,27,08,40,-0.70
2008,03,27,08,41,-0.70
2008,03,27,08,42,-0.70
2008,03,27,08,44,-0.60
2008,03,27,08,45,-0.60
2008,03,27,08,46,-0.60
2008,03,27,08,47,-0.60
2008,03,27,08,48,-0.50
2008,03,27,08,49,-0.40
2008,03,27,08,50,-0.40
2008,03,27,08,51,-0.40
2008,03,27,08,52,-0.40
2008,03,27,08,53,-0.40
2008,03,27,08,54,-0.30
2008,03,27,08,55,-0.30
2008,03,27,08,56,-0.30
2008,03,27,08,57,-0.20
2008,03,27,08,58,-0.20
2008,03,27,09,00,-0.20
2008,03,27,09,01,-0.10
2008,03,27,09,02,-0.10
2008,03,27,09,03,-0.10
2008,03,27,09,04,-0.10
2008,03,27,09,05,0.00
2008,03,27,09,06,0.00
2008,03,27,09,07,0.00
2008,03,27,09,08,0.10
2008,03,27,09,09,0.10
2008,03,27,09,11,0.10
2008,03,27,09,12,0.10
2008,03,27,09,13,0.10
2008,03,27,09,14,0.10
2008,03,27,09,15,0.20
2008,03,27,09,16,0.20
2008,03,27,09,17,0.20
2008,03,27,09,18,0.20
2008,03,27,09,19,0.20
2008,03,27,09,20,0.20
2008,03,27,09,21,0.30
2008,03,27,09,22,0.30
2008,03,27,09,23,0.30
2008,03,27,09,24,0.30
2008,03,27,09,25,0.30
2008,03,27,09,26,0.30
2008,03,27,09,27,0.30
2008,03,27,09,28,0.30
2008,03,27,09,30,0.30
2008,03,27,09,31,0.30
2008,03,27,09,32,0.30
2008,03,27,09,33,0.30
2008,03,27,09,35,0.30
2008,03,27,09,36,0.30
2008,03,27,09,37,0.40
2008,03,27,09,38,0.40
2008,03,27,09,39,0.40
2008,03,27,09,40,0.40
2008,03,27,09,41,0.40
2008,03,27,09,42,0.40
2008,03,27,09,44,0.40
2008,03,27,09,45,0.40
2008,03,27,09,47,0.50
2008,03,27,09,48,0.50
2008,03,27,09,49,0.60
2008,03,27,09,50,0.60
2008,03,27,09,51,0.60
2008,03,27,09,52,0.60
2008,03,27,09,54,0.70
2008,03,27,09,55,0.70
2008,03,27,09,56,0.70
2008,03,27,09,57,0.70
2008,03,27,09,58,0.70
2008,03,27,09,59,0.70
2008,03,27,10,00,0.80
2008,03,27,10,02,0.80
2008,03,27,10,03,0.80
2008,03,27,10,04,0.80
2008,03,27,10,05,0.80
2008,03,27,10,06,0.90
2008,03,27,10,07,0.90
2008,03,27,10,08,0.90
2008,03,27,10,09,0.90
2008,03,27,10,10,0.90
2008,03,27,10,11,0.90
2008,03,27,10,12,0.90
2008,03,27,10,13,1.00
2008,03,27,10,15,1.00
2008,03,27,10,16,1.10
2008,03,27,10,17,1.10
2008,03,27,10,18,1.10
2008,03,27,10,20,1.10
2008,03,27,10,21,1.10
2008,03,27,10,22,1.20
2008,03,27,10,23,1.20
2008,03,27,10,25,1.20
2008,03,27,10,26,1.30
2008,03,27,10,27,1.30
2008,03,27,10,28,1.30
2008,03,27,10,29,1.30
2008,03,27,10,30,1.30
2008,03,27,10,31,1.30
2008,03,27,10,32,1.30
2008,03,27,10,33,1.30
2008,03,27,10,34,1.40
2008,03,27,10,35,1.50
2008,03,27,10,36,1.50
2008,03,27,10,37,1.60
2008,03,27,10,39,1.60
2008,03,27,10,40,1.60
2008,03,27,10,42,1.70
2008,03,27,10,43,1.70
2008,03,27,10,45,1.80
2008,03,27,10,46,1.80
2008,03,27,10,47,1.80
2008,03,27,10,48,1.90
2008,03,27,10,49,1.90
2008,03,27,10,50,1.90
2008,03,27,10,51,1.90
2008,03,27,10,52,1.90
2008,03,27,10,53,2.00
2008,03,27,10,54,2.00
2008,03,27,10,55,2.00
2008,03,27,10,56,2.00
2008,03,27,10,57,2.10
2008,03,27,10,58,2.10
2008,03,27,10,59,2.10
2008,03,27,11,01,2.20
2008,03,27,11,02,2.30
2008,03,27,11,03,2.30
2008,03,27,11,04,2.30
2008,03,27,11,05,2.40
2008,03,27,11,06,2.40
2008,03,27,11,07,2.40
2008,03,27,11,08,2.50
2008,03,27,11,09,2.50
2008,03,27,11,11,2.70
2008,03,27,11,12,2.70
2008,03,27,11,13,2.70
2008,03,27,11,15,2.90
2008,03,27,11,16,2.90
2008,03,27,11,17,3.00
2008,03,27,11,19,3.10
2008,03,27,11,21,3.20
2008,03,27,11,22,3.20
2008,03,27,11,23,3.30
2008,03,27,11,24,3.30
2008,03,27,11,25,3.30
2008,03,27,11,26,3.40
2008,03,27,11,27,3.40
2008,03,27,11,28,3.50
2008,03,27,11,29,3.60
2008,03,27,11,30,3.60
2008,03,27,11,31,3.60
2008,03,27,11,32,3.70
2008,03,27,11,33,3.70
2008,03,27,11,35,3.80
2008,03,27,11,36,3.90
2008,03,27,11,37,3.90
2008,03,27,11,38,4.10
2008,03,27,11,39,4.10
2008,03,27,11,40,4.20
2008,03,27,11,42,4.20
2008,03,27,11,43,4.20
2008,03,27,11,44,4.30
2008,03,27,11,45,4.30
2008,03,27,11,47,4.30
2008,03,27,11,49,4.40
2008,03,27,11,50,4.40
2008,03,27,11,52,4.50
2008,03,27,11,53,4.50
2008,03,27,11,55,4.60
2008,03,27,11,56,4.60
2008,03,27,11,57,4.60
2008,03,27,11,58,4.60
2008,03,27,11,59,4.60
2008,03,27,12,00,4.70
2008,03,27,12,01,4.70
2008,03,27,12,02,4.70
2008,03,27,12,04,4.90
2008,03,27,12,05,4.90
2008,03,27,12,06,5.00
2008,03,27,12,07,5.10
2008,03,27,12,08,5.20
2008,03,27,12,09,5.20
2008,03,27,12,11,5.30
2008,03,27,12,12,5.30
2008,03,27,12,13,5.30
2008,03,27,12,14,5.20
2008,03,27,12,15,5.20
2008,03,27,12,16,5.20
2008,03,27,12,17,5.20
2008,03,27,12,18,5.10
2008,03,27,12,19,5.10
2008,03,27,12,20,5.10
2008,03,27,12,21,5.00
2008,03,27,12,22,4.90
2008,03,27,12,23,4.80
2008,03,27,12,24,4.70
2008,03,27,12,25,4.70
2008,03,27,12,26,4.60
2008,03,27,12,27,4.50
2008,03,27,12,28,4.40
2008,03,27,12,30,4.20
2008,03,27,12,31,4.20
2008,03,27,12,32,4.20
2008,03,27,12,33,4.20
2008,03,27,12,34,4.20
2008,03,27,12,35,4.20
2008,03,27,12,36,4.30
2008,03,27,12,37,4.30
2008,03,27,12,38,4.40
2008,03,27,12,39,4.50
2008,03,27,12,40,4.60
2008,03,27,12,41,4.60
2008,03,27,12,42,4.70
2008,03,27,12,43,4.70
2008,03,27,12,44,4.80
2008,03,27,12,45,4.80
2008,03,27,12,46,4.90
2008,03,27,12,47,4.90
2008,03,27,12,48,4.90
2008,03,27,12,49,4.90
2008,03,27,12,50,4.90
2008,03,27,12,51,5.00
2008,03,27,12,52,5.10
2008,03,27,12,53,5.10
2008,03,27,12,54,5.10
2008,03,27,12,56,5.20
2008,03,27,12,57,5.20
2008,03,27,12,58,5.30
2008,03,27,13,00,5.40
2008,03,27,13,01,5.40
2008,03,27,13,02,5.40
2008,03,27,13,03,5.40
2008,03,27,13,04,5.40
2008,03,27,13,05,5.40
2008,03,27,13,06,5.40
2008,03,27,13,07,5.40
2008,03,27,13,08,5.40
2008,03,27,13,09,5.40
2008,03,27,13,10,5.40
2008,03,27,13,11,5.40
2008,03,27,13,12,5.40
2008,03,27,13,13,5.40
2008,03,27,13,15,5.40
2008,03,27,13,16,5.40
2008,03,27,13,17,5.40
2008,03,27,13,18,5.40
2008,03,27,13,19,5.40
2008,03,27,13,20,5.50
2008,03,27,13,21,5.50
2008,03,27,13,22,5.60
2008,03,27,13,23,5.70
2008,03,27,13,24,5.70
2008,03,27,13,25,5.80
2008,03,27,13,26,5.80
2008,03,27,13,27,5.90
2008,03,27,13,28,5.90
2008,03,27,13,30,6.10
2008,03,27,13,31,6.10
2008,03,27,13,32,6.20
2008,03,27,13,33,6.20
2008,03,27,13,34,6.30
2008,03,27,13,35,6.30
2008,03,27,13,36,6.30
2008,03,27,13,37,6.30
2008,03,27,13,38,6.30
2008,03,27,13,39,6.30
2008,03,27,13,40,6.30
2008,03,27,13,41,6.30
2008,03,27,13,42,6.30
2008,03,27,13,44,6.30
2008,03,27,13,45,6.30
2008,03,27,13,46,6.30
2008,03,27,13,47,6.20
2008,03,27,13,48,6.20
2008,03,27,13,50,6.20
2008,03,27,13,51,6.20
2008,03,27,13,52,6.10
2008,03,27,13,53,6.10
2008,03,27,13,54,6.10
2008,03,27,13,55,5.90
2008,03,27,13,57,5.80
2008,03,27,13,59,5.70
2008,03,27,14,00,5.70
2008,03,27,14,01,5.60
2008,03,27,14,02,5.60
2008,03,27,14,03,5.40
2008,03,27,14,05,5.20
2008,03,27,14,07,4.90
2008,03,27,14,09,4.50
2008,03,27,14,10,4.30
2008,03,27,14,11,4.10
2008,03,27,14,12,3.90
2008,03,27,14,13,3.80
2008,03,27,14,14,3.70
2008,03,27,14,15,3.60
2008,03,27,14,16,3.50
2008,03,27,14,18,3.40
2008,03,27,14,19,3.40
2008,03,27,14,20,3.50
2008,03,27,14,21,3.60
2008,03,27,14,23,3.70
2008,03,27,14,24,3.80
2008,03,27,14,25,3.90
2008,03,27,14,26,4.00
2008,03,27,14,27,4.10
2008,03,27,14,28,4.20
2008,03,27,14,30,4.30
2008,03,27,14,31,4.40
2008,03,27,14,32,4.60
2008,03,27,14,34,4.70
2008,03,27,14,35,4.80
2008,03,27,14,36,4.90
2008,03,27,14,37,4.90
2008,03,27,14,38,5.00
2008,03,27,14,39,5.10
2008,03,27,14,40,5.10
2008,03,27,14,41,5.10
2008,03,27,14,42,5.20
2008,03,27,14,43,5.20
2008,03,27,14,45,5.30
2008,03,27,14,46,5.40
2008,03,27,14,47,5.40
2008,03,27,14,48,5.50
2008,03,27,14,49,5.60
2008,03,27,14,50,5.60
2008,03,27,14,51,5.70
2008,03,27,14,52,5.70
2008,03,27,14,53,5.80
2008,03,27,14,54,5.80
2008,03,27,14,55,5.80
2008,03,27,14,57,5.90
2008,03,27,14,58,5.90
2008,03,27,15,00,6.00
2008,03,27,15,01,6.00
2008,03,27,15,02,6.00
2008,03,27,15,03,6.10
2008,03,27,15,04,6.10
2008,03,27,15,05,6.10
2008,03,27,15,06,6.10
2008,03,27,15,07,6.10
2008,03,27,15,08,6.10
2008,03,27,15,09,6.20
2008,03,27,15,10,6.20
2008,03,27,15,11,6.30
2008,03,27,15,12,6.30
2008,03,27,15,13,6.30
2008,03,27,15,15,6.40
2008,03,27,15,16,6.40
2008,03,27,15,17,6.40
2008,03,27,15,18,6.40
2008,03,27,15,19,6.40
2008,03,27,15,20,6.40
2008,03,27,15,21,6.40
2008,03,27,15,22,6.40
2008,03,27,15,23,6.40
2008,03,27,15,24,6.40
2008,03,27,15,25,6.40
2008,03,27,15,26,6.40
2008,03,27,15,27,6.40
2008,03,27,15,28,6.40
2008,03,27,15,30,6.50
2008,03,27,15,31,6.60
2008,03,27,15,32,6.60
2008,03,27,15,33,6.70
2008,03,27,15,34,6.70
2008,03,27,15,35,6.70
2008,03,27,15,36,6.70
2008,03,27,15,37,6.80
2008,03,27,15,38,6.80
2008,03,27,15,39,6.90
2008,03,27,15,40,6.90
2008,03,27,15,41,6.90
2008,03,27,15,42,7.00
2008,03,27,15,43,7.00
2008,03,27,15,45,7.10
2008,03,27,15,46,7.20
2008,03,27,15,47,7.20
2008,03,27,15,48,7.20
2008,03,27,15,49,7.20
2008,03,27,15,50,7.30
2008,03,27,15,51,7.30
2008,03,27,15,52,7.30
2008,03,27,15,53,7.20
2008,03,27,15,54,7.20
2008,03,27,15,55,7.20
2008,03,27,15,56,7.10
2008,03,27,15,57,7.10
2008,03,27,15,58,7.10
2008,03,27,15,59,7.00
2008,03,27,16,00,6.90
2008,03,27,16,01,6.90
2008,03,27,16,02,6.80
2008,03,27,16,03,6.80
2008,03,27,16,04,6.80
2008,03,27,16,05,6.80
2008,03,27,16,06,6.80
2008,03,27,16,07,6.80
2008,03,27,16,08,6.80
2008,03,27,16,09,6.80
2008,03,27,16,10,6.80
2008,03,27,16,11,6.80
2008,03,27,16,12,6.90
2008,03,27,16,13,6.90
2008,03,27,16,15,6.90
2008,03,27,16,16,6.90
2008,03,27,16,17,7.00
2008,03,27,16,18,7.00
2008,03,27,16,19,7.10
2008,03,27,16,20,7.10
2008,03,27,16,21,7.10
2008,03,27,16,22,7.10
2008,03,27,16,23,7.10
2008,03,27,16,24,7.10
2008,03,27,16,25,7.10
2008,03,27,16,26,7.00
2008,03,27,16,27,6.90
2008,03,27,16,28,6.90
2008,03,27,16,30,6.70
2008,03,27,16,31,6.70
2008,03,27,16,32,6.70
2008,03,27,16,33,6.60
2008,03,27,16,34,6.50
2008,03,27,16,35,6.40
2008,03,27,16,36,6.40
2008,03,27,16,37,6.30
2008,03,27,16,38,6.20
2008,03,27,16,39,6.20
2008,03,27,16,40,6.10
2008,03,27,16,41,5.90
2008,03,27,16,42,5.90
2008,03,27,16,43,5.80
2008,03,27,16,44,5.80
2008,03,27,16,45,5.70
2008,03,27,16,46,5.60
2008,03,27,16,47,5.40
2008,03,27,16,48,5.40
2008,03,27,16,49,5.30
2008,03,27,16,50,5.20
2008,03,27,16,51,5.20
2008,03,27,16,52,5.10
2008,03,27,16,53,5.00
2008,03,27,16,54,4.90
2008,03,27,16,55,4.90
2008,03,27,16,56,4.80
2008,03,27,16,57,4.80
2008,03,27,16,58,4.80
2008,03,27,16,59,4.80
2008,03,27,17,00,4.80
2008,03,27,17,01,4.80
2008,03,27,17,02,4.80
2008,03,27,17,03,4.90
2008,03,27,17,04,4.90
2008,03,27,17,05,4.90
2008,03,27,17,06,5.00
2008,03,27,17,07,5.10
2008,03,27,17,08,5.10
2008,03,27,17,09,5.20
2008,03,27,17,10,5.30
2008,03,27,17,11,5.30
2008,03,27,17,12,5.40
2008,03,27,17,13,5.50
2008,03,27,17,14,5.60
2008,03,27,17,15,5.60
2008,03,27,17,16,5.70
2008,03,27,17,17,5.70
2008,03,27,17,18,5.80
2008,03,27,17,19,5.90
2008,03,27,17,20,5.90
2008,03,27,17,21,6.10
2008,03,27,17,22,6.10
2008,03,27,17,23,6.20
2008,03,27,17,24,6.20
2008,03,27,17,25,6.30
2008,03,27,17,26,6.30
2008,03,27,17,27,6.30
2008,03,27,17,28,6.30
2008,03,27,17,29,6.30
2008,03,27,17,30,6.30
2008,03,27,17,31,6.20
2008,03,27,17,32,6.00
2008,03,27,17,33,5.90
2008,03,27,17,34,5.70
2008,03,27,17,36,5.40
2008,03,27,17,37,5.30
2008,03,27,17,38,5.20
2008,03,27,17,39,5.10
2008,03,27,17,40,5.00
2008,03,27,17,41,4.90
2008,03,27,17,42,4.80
2008,03,27,17,43,4.80
2008,03,27,17,44,4.70
2008,03,27,17,45,4.70
2008,03,27,17,46,4.60
2008,03,27,17,47,4.50
2008,03,27,17,48,4.40
2008,03,27,17,49,4.40
2008,03,27,17,50,4.30
2008,03,27,17,51,4.30
2008,03,27,17,52,4.20
2008,03,27,17,53,4.20
2008,03,27,17,54,4.20
2008,03,27,17,55,4.10
2008,03,27,17,56,4.10
2008,03,27,17,57,4.10
2008,03,27,17,59,4.10
2008,03,27,18,00,4.10
2008,03,27,18,01,4.10
2008,03,27,18,02,4.10
2008,03,27,18,03,4.10
2008,03,27,18,04,4.10
2008,03,27,18,05,4.10
2008,03,27,18,06,4.10
2008,03,27,18,07,4.10
2008,03,27,18,08,4.20
2008,03,27,18,09,4.20
2008,03,27,18,10,4.20
2008,03,27,18,11,4.30
2008,03,27,18,12,4.30
2008,03,27,18,13,4.30
2008,03,27,18,14,4.40
2008,03,27,18,15,4.40
2008,03,27,18,16,4.50
2008,03,27,18,17,4.60
2008,03,27,18,18,4.60
2008,03,27,18,19,4.60
2008,03,27,18,20,4.60
2008,03,27,18,21,4.70
2008,03,27,18,22,4.70
2008,03,27,18,23,4.70
2008,03,27,18,24,4.70
2008,03,27,18,25,4.80
2008,03,27,18,26,4.80
2008,03,27,18,27,4.80
2008,03,27,18,28,4.80
2008,03,27,18,29,4.90
2008,03,27,18,30,4.90
2008,03,27,18,31,4.90
2008,03,27,18,32,4.90
2008,03,27,18,33,4.90
2008,03,27,18,34,4.90
2008,03,27,18,35,4.90
2008,03,27,18,36,4.90
2008,03,27,18,37,4.90
2008,03,27,18,38,4.90
2008,03,27,18,39,4.90
2008,03,27,18,40,4.80
2008,03,27,18,41,4.80
2008,03,27,18,42,4.80
2008,03,27,18,43,4.80
2008,03,27,18,44,4.80
2008,03,27,18,45,4.80
2008,03,27,18,46,4.80
2008,03,27,18,47,4.80
2008,03,27,18,48,4.80
2008,03,27,18,49,4.80
2008,03,27,18,50,4.80
2008,03,27,18,51,4.80
2008,03,27,18,52,4.80
2008,03,27,18,53,4.80
2008,03,27,18,54,4.70
2008,03,27,18,55,4.70
2008,03,27,18,56,4.70
2008,03,27,18,57,4.70
2008,03,27,18,58,4.80
2008,03,27,18,59,4.70
2008,03,27,19,00,4.70
2008,03,27,19,01,4.70
2008,03,27,19,02,4.60
2008,03,27,19,03,4.60
2008,03,27,19,04,4.60
2008,03,27,19,05,4.60
2008,03,27,19,06,4.60
2008,03,27,19,07,4.60
2008,03,27,19,08,4.60
2008,03,27,19,09,4.60
2008,03,27,19,10,4.50
2008,03,27,19,11,4.50
2008,03,27,19,12,4.50
2008,03,27,19,13,4.50
2008,03,27,19,14,4.50
2008,03,27,19,15,4.50
2008,03,27,19,16,4.50
2008,03,27,19,17,4.40
2008,03,27,19,18,4.50
2008,03,27,19,19,4.40
2008,03,27,19,20,4.40
2008,03,27,19,21,4.40
2008,03,27,19,22,4.40
2008,03,27,19,23,4.40
2008,03,27,19,24,4.40
2008,03,27,19,25,4.40
2008,03,27,19,26,4.30
2008,03,27,19,27,4.30
2008,03,27,19,28,4.30
2008,03,27,19,29,4.30
2008,03,27,19,30,4.30
2008,03,27,19,31,4.30
2008,03,27,19,32,4.30
2008,03,27,19,33,4.30
2008,03,27,19,34,4.30
2008,03,27,19,35,4.20
2008,03,27,19,36,4.20
2008,03,27,19,37,4.20
2008,03,27,19,38,4.20
2008,03,27,19,39,4.20
2008,03,27,19,40,4.20
2008,03,27,19,41,4.20
2008,03,27,19,42,4.20
2008,03,27,19,43,4.20
2008,03,27,19,44,4.20
2008,03,27,19,45,4.10
2008,03,27,19,46,4.10
2008,03,27,19,47,4.10
2008,03,27,19,48,4.10
2008,03,27,19,49,4.10
2008,03,27,19,50,4.10
2008,03,27,19,51,4.10
2008,03,27,19,52,4.10
2008,03,27,19,53,4.10
2008,03,27,19,54,4.00
2008,03,27,19,55,4.00
2008,03,27,19,56,4.00
2008,03,27,19,57,4.00
2008,03,27,19,58,3.90
2008,03,27,20,00,3.90
2008,03,27,20,01,3.90
2008,03,27,20,02,3.90
2008,03,27,20,03,3.90
2008,03,27,20,04,3.90
2008,03,27,20,05,3.80
2008,03,27,20,06,3.80
2008,03,27,20,08,3.80
2008,03,27,20,09,3.80
2008,03,27,20,10,3.80
2008,03,27,20,11,3.70
2008,03,27,20,12,3.70
2008,03,27,20,13,3.70
2008,03,27,20,14,3.70
2008,03,27,20,15,3.60
2008,03,27,20,16,3.60
2008,03,27,20,17,3.60
2008,03,27,20,18,3.50
2008,03,27,20,19,3.40
2008,03,27,20,20,3.40
2008,03,27,20,21,3.30
2008,03,27,20,22,3.30
2008,03,27,20,23,3.30
2008,03,27,20,24,3.20
2008,03,27,20,25,3.20
2008,03,27,20,26,3.20
2008,03,27,20,27,3.10
2008,03,27,20,28,3.10
2008,03,27,20,29,3.10
2008,03,27,20,30,3.00
2008,03,27,20,31,3.00
